Flag Weather past 2 weeks in Forchheim, Bavaria, Germany

Now
50 °F

Overcast.


Feels Like: 50 °F
Forecast: 44 / 61 °F
Wind: 1 mph from Southeast

Location: Bamberg

Current Time: Oct 31, 2014 at 6:10:11 AM

Latest Report: Oct 31, 2014 at 5:00 AM


Visibility: 3 mi

Pressure: 30.33 "Hg

Humidity: 96%

Dew point: 49 °F

Location of ForchheimLocation

Historic Weather in Forchheim — Graph

°F

Forchheim temperature yesterday

Maximum temperature yesterday: 51 °F (at 3:00 PM)
Minimum temperature yesterday: 43 °F (at 1:00 AM)
Average temperature yesterday: 47 °F

Past Weeks' High & Low Weather Summary

 TemperatureHumidityPressure
High72 °F (Oct 19, 5:00 PM)100% (Oct 16, 6:00 AM)30.41 "Hg (Oct 16, 6:00 AM)
Low32 °F (Oct 28, 11:00 PM)57% (Oct 24, 4:00 PM)29.58 "Hg (Oct 21, 8:00 PM)
Average49 °F91%30.13 "Hg
* Reported Oct 16 6:00 AM — Oct 31 5:00 AM, Forchheim, Weather by CustomWeather, © 2014

Note: Actual official high and low records may vary slightly from our data, if they occured in-between our weather recording intervals... More about our weather records

Advertising

Forchheim weather history for previous 24 hours

 ConditionsComfort  
Time TempWeatherWind HumidityBarometerVisibility
5:00 AM
Oct 31
50 °FOvercast.1 mph96%30.33 "Hg3 mi
4:00 AM50 °FFog.2 mph97%30.32 "Hg3 mi
3:00 AM49 °FFog.1 mph97%30.33 "Hg2 mi
2:00 AM49 °FFog.1 mph97%30.34 "Hg2 mi
1:00 AM49 °FFog.1 mph97%30.34 "Hg3 mi
12:00 AM49 °FFog.No wind96%30.34 "Hg2 mi
11:00 PM
Oct 30
49 °FFog.No wind96%30.34 "Hg2 mi
10:00 PM49 °FFog.1 mph96%30.34 "Hg2 mi
9:00 PM49 °FFog.1 mph94%30.34 "Hg3 mi
8:00 PM49 °FFog.1 mph94%30.33 "Hg4 mi
7:00 PM49 °FFog.1 mph92%30.33 "Hg4 mi
6:00 PM49 °FFog.1 mph91%30.33 "Hg4 mi
5:00 PM51 °FFog.1 mph81%30.32 "Hg4 mi
4:00 PM51 °FFog.1 mph80%30.31 "Hg4 mi
3:00 PM51 °FOvercast.2 mph78%30.30 "Hg4 mi
2:00 PM51 °FOvercast.2 mph78%30.31 "Hg4 mi
1:00 PM50 °FOvercast.1 mph80%30.31 "Hg4 mi
12:00 PM50 °FFog.1 mph80%30.31 "Hg4 mi
11:00 AM49 °FFog.1 mph81%30.31 "Hg4 mi
10:00 AM47 °FFog.1 mph87%30.31 "Hg3 mi
9:00 AM46 °FFog.1 mph94%30.29 "Hg3 mi
8:00 AM45 °FFog.1 mph98%30.28 "Hg3 mi
7:00 AM44 °FFog.1 mph99%30.26 "Hg2 mi
6:00 AM44 °FOvercast.1 mph99%30.24 "Hg3 mi
Weather by CustomWeather, © 2014

See weather overviewHow to use our weather pages